The Villages, FL

9:25 PM EDT on July 23, 2017 (GMT -0400)
The Villages

Weather History for KVVG - April, 2013

Change the Weather History Date:

Tuesday, April 2, 2013

  Actual Average (KLEE) Record (KLEE)
Temperature  
Mean Temperature 70 °F -  
Max Temperature 84 °F 79 °F 91 °F (2017)
Min Temperature 55 °F 56 °F 39 °F (1987)
Cooling Degree Days 4    
Growing Degree Days 20 (Base 50)    
Moisture  
Dew Point 52 °F    
Average Humidity 62    
Maximum Humidity 100    
Minimum Humidity 26    
Precipitation  
Precipitation 0.00 in - - ()
Sea Level Pressure  
Sea Level Pressure 30.06 in    
Wind  
Wind Speed 2 mph (ENE)    
Max Wind Speed 10 mph    
Max Gust Speed -    
Visibility 7 miles    
Events Fog    
Averages and records for this station are not official NWS values.
T = Trace of Precipitation, MM = Missing Value Source: NWS Daily Summary

Daily Weather History Graph

Daily Weather History Graph

Search for Another Location

Airport or City:

Trip Planner

Search our weather history database for the weather conditions in past years. The results will help you decide how hot, cold, wet, or windy it might be!

Date:

Astronomy

Apr. 02, 2013 Rise Set
Actual Time 7:15 AM EDT 7:46 PM EDT
Civil Twilight 6:51 AM EDT 8:10 PM EDT
Nautical Twilight 6:24 AM EDT 8:38 PM EDT
Astronomical Twilight 5:55 AM EDT 9:06 PM EDT
Moon 1:30 AM EDT (4/2) 12:23 PM EDT (4/2)
Length of Visible Light 13h 18m
Length of Day
12h 30m
Waning Gibbous, 56% of the Moon is Illuminated
Apr 2
Waning Gibbous
Apr 3
Last Quarter
Apr 10
New
Apr 18
First Quarter
Apr 25
Full

Hourly Weather History & Observations

Time (EDT) Temp. Dew Point Humidity Pressure Visibility Wind Dir Wind Speed Gust Speed Precip Events Conditions
12:15 AM 64.4 °F 62.6 °F 94% 30.02 in 10.0 mi Calm Calm - N/A   Unknown
12:35 AM 64.4 °F 62.6 °F 94% 30.02 in 10.0 mi Calm Calm - N/A   Unknown
12:55 AM 64.4 °F 62.6 °F 94% 30.02 in 10.0 mi Calm Calm - N/A   Unknown
1:15 AM 62.6 °F 62.6 °F 100% 30.02 in 9.0 mi Calm Calm - N/A   Unknown
1:35 AM 62.6 °F 62.6 °F 100% 30.02 in 5.0 mi Calm Calm - N/A   Mist
1:55 AM 62.6 °F 62.6 °F 100% 30.02 in 3.0 mi Calm Calm - N/A   Mist
2:15 AM 62.6 °F 62.6 °F 100% 30.02 in 5.0 mi Calm Calm - N/A   Mist
2:35 AM 62.6 °F 62.6 °F 100% 30.02 in 2.0 mi Calm Calm - N/A   Mist
2:55 AM 60.8 °F 60.8 °F 100% 30.02 in 3.0 mi Calm Calm - N/A   Mist
3:15 AM 60.8 °F 60.8 °F 100% 30.02 in 2.0 mi Calm Calm - N/A   Mist
3:35 AM 60.8 °F 60.8 °F 100% 30.02 in 0.2 mi Calm Calm - N/A Fog Fog
3:55 AM 60.8 °F 60.8 °F 100% 30.02 in 0.2 mi Calm Calm - N/A Fog Fog
4:15 AM 59.0 °F 59.0 °F 100% 30.02 in 0.2 mi Calm Calm - N/A Fog Fog
4:35 AM 57.2 °F 57.2 °F 100% 30.02 in 0.2 mi Calm Calm - N/A Fog Fog
4:55 AM 60.8 °F 60.8 °F 100% 30.02 in 0.8 mi Calm Calm - N/A   Mist
5:15 AM 59.0 °F 59.0 °F 100% 30.02 in 0.2 mi Calm Calm - N/A Fog Fog
5:35 AM 59.0 °F 59.0 °F 100% 30.03 in 0.2 mi Calm Calm - N/A Fog Fog
5:55 AM 57.2 °F 57.2 °F 100% 30.03 in 0.2 mi Calm Calm - N/A Fog Fog
6:15 AM 57.2 °F 57.2 °F 100% 30.04 in 0.2 mi Calm Calm - N/A Fog Fog
6:35 AM 57.2 °F 57.2 °F 100% 30.04 in 0.2 mi Calm Calm - N/A Fog Fog
6:55 AM 57.2 °F 57.2 °F 100% 30.05 in 0.2 mi Calm Calm - N/A Fog Fog
7:15 AM 55.4 °F 55.4 °F 100% 30.06 in 0.2 mi Calm Calm - N/A Fog Fog
7:35 AM 55.4 °F 55.4 °F 100% 30.06 in 0.2 mi Calm Calm - N/A Fog Fog
7:55 AM 55.4 °F 55.4 °F 100% 30.08 in 0.2 mi Calm Calm - N/A Fog Fog
8:15 AM 57.2 °F 57.2 °F 100% 30.09 in 0.2 mi Calm Calm - N/A Fog Fog
8:35 AM 59.0 °F 59.0 °F 100% 30.09 in 3.0 mi Calm Calm - N/A   Mist
8:55 AM 60.8 °F 60.8 °F 100% 30.09 in 10.0 mi Calm Calm - N/A   Unknown
9:15 AM 62.6 °F 62.6 °F 100% 30.10 in 10.0 mi Calm Calm - N/A   Unknown
9:35 AM 62.6 °F 62.6 °F 100% 30.10 in 10.0 mi North 8.1 mph - N/A   Unknown
9:55 AM 64.4 °F 64.4 °F 100% 30.10 in 10.0 mi North 8.1 mph - N/A   Unknown
10:35 AM 73.4 °F 51.8 °F 47% 30.10 in 10.0 mi NNE 9.2 mph - N/A   Unknown
10:55 AM 75.2 °F 50.0 °F 41% 30.11 in 10.0 mi ENE 8.1 mph - N/A   Unknown
11:15 AM 77.0 °F 48.2 °F 36% 30.11 in 10.0 mi NE 9.2 mph - N/A   Unknown
11:35 AM 78.8 °F 48.2 °F 34% 30.11 in 10.0 mi ENE 9.2 mph - N/A   Unknown
11:55 AM 78.8 °F 46.4 °F 32% 30.12 in 10.0 mi East 3.5 mph - N/A   Unknown
12:15 PM 78.8 °F 46.4 °F 32% 30.11 in 10.0 mi NE 5.8 mph - N/A   Unknown
12:35 PM 78.8 °F 48.2 °F 34% 30.10 in 10.0 mi NNW 3.5 mph - N/A   Unknown
12:55 PM 80.6 °F 46.4 °F 30% 30.10 in 10.0 mi NNE 8.1 mph - N/A   Unknown
1:15 PM 80.6 °F 46.4 °F 30% 30.09 in 10.0 mi Calm Calm - N/A   Unknown
1:35 PM 82.4 °F 46.4 °F 28% 30.08 in 10.0 mi ENE 5.8 mph - N/A   Unknown
1:55 PM 82.4 °F 46.4 °F 28% 30.07 in 10.0 mi North 9.2 mph - N/A   Unknown
2:15 PM 82.4 °F 46.4 °F 28% 30.06 in 10.0 mi North 5.8 mph - N/A   Unknown
2:35 PM 82.4 °F 44.6 °F 26% 30.06 in 10.0 mi NNE 4.6 mph - N/A   Unknown
2:55 PM 84.2 °F 46.4 °F 27% 30.04 in 10.0 mi Calm Calm - N/A   Unknown
3:15 PM 82.4 °F 46.4 °F 28% 30.04 in 10.0 mi North 4.6 mph - N/A   Unknown
3:35 PM 84.2 °F 46.4 °F 27% 30.03 in 10.0 mi ENE 8.1 mph - N/A   Unknown
3:55 PM 84.2 °F 46.4 °F 27% 30.02 in 10.0 mi East 6.9 mph - N/A   Unknown
4:15 PM 84.2 °F 46.4 °F 27% 30.02 in 10.0 mi SE 8.1 mph - N/A   Unknown
4:35 PM 82.4 °F 46.4 °F 28% 30.02 in 10.0 mi Calm Calm - N/A   Unknown
4:55 PM 82.4 °F 46.4 °F 28% 30.02 in 10.0 mi ESE 6.9 mph - N/A   Unknown
5:15 PM 82.4 °F 46.4 °F 28% 30.03 in 10.0 mi East 8.1 mph - N/A   Unknown
5:35 PM 82.4 °F 46.4 °F 28% 30.03 in 10.0 mi SE 10.4 mph - N/A   Unknown
5:55 PM 82.4 °F 44.6 °F 26% 30.03 in 10.0 mi SSE 8.1 mph - N/A   Unknown
6:15 PM 82.4 °F 44.6 °F 26% 30.03 in 10.0 mi SE 9.2 mph - N/A   Unknown
6:35 PM 80.6 °F 46.4 °F 30% 30.03 in 10.0 mi East 8.1 mph - N/A   Unknown
6:55 PM 80.6 °F 46.4 °F 30% 30.03 in 10.0 mi East 10.4 mph - N/A   Unknown
7:15 PM 78.8 °F 46.4 °F 32% 30.03 in 10.0 mi East 10.4 mph - N/A   Unknown
7:35 PM 75.2 °F 44.6 °F 34% 30.04 in 10.0 mi ENE 9.2 mph - N/A   Unknown
7:55 PM 73.4 °F 44.6 °F 36% 30.04 in 10.0 mi East 10.4 mph - N/A   Unknown
8:15 PM 73.4 °F 44.6 °F 36% 30.05 in 10.0 mi East 10.4 mph - N/A   Unknown
8:35 PM 71.6 °F 44.6 °F 38% 30.05 in 10.0 mi ENE 9.2 mph - N/A   Unknown
8:55 PM 69.8 °F 44.6 °F 40% 30.07 in 10.0 mi East 6.9 mph - N/A   Unknown
9:15 PM 69.8 °F 44.6 °F 40% 30.07 in 10.0 mi ENE 4.6 mph - N/A   Unknown
9:35 PM 68.0 °F 44.6 °F 43% 30.07 in 10.0 mi ENE 6.9 mph - N/A   Unknown
9:55 PM 68.0 °F 44.6 °F 43% 30.08 in 10.0 mi Calm Calm - N/A   Unknown
10:15 PM 66.2 °F 46.4 °F 49% 30.09 in 10.0 mi Calm Calm - N/A   Unknown
10:35 PM 66.2 °F 46.4 °F 49% 30.09 in 10.0 mi Calm Calm - N/A   Unknown
10:55 PM 64.4 °F 48.2 °F 56% 30.10 in 10.0 mi Calm Calm - N/A   Unknown
11:15 PM 64.4 °F 48.2 °F 56% 30.11 in 10.0 mi Calm Calm - N/A   Unknown
11:35 PM 64.4 °F 48.2 °F 56% 30.11 in 10.0 mi Calm Calm - N/A   Unknown
11:55 PM 64.4 °F 48.2 °F 56% 30.11 in 10.0 mi Calm Calm - N/A   Unknown